User: anonymous   Login
Location: Multiple Mirror Telescope
(31.6889°N, 110.8853°W)
Time: 20:47:52
(UTC-07:00)
Language:

ACS3 Solar Sail - Orbit

View from above orbital plane
View from above orbital plane
View from above satellite
View from above satellite

Ground track
Ground track

The orbit is defined by the following mean orbital elements,

1 59588U          26075.84148551 +.00000000 +00000-0 +16158-1 0 00006
2 59588  97.2037  15.3457 0065644  59.3413 301.4200 13.89939193    05
Epoch (UTC): 16 March 2026 20:11:44
Eccentricity: 0.0065644
inclination: 97.2037°
perigee height: 881 km
apogee height: 977 km
right ascension of ascending node: 15.3457°
argument of perigee: 59.3413°
revolutions per day: 13.89939193
mean anomaly at epoch: 301.4200°

The dashed part of the orbit path shows where the satellite is in the earth's shadow,  

DLR